User: anonymous   Login
Location: Standeford and Andreas Observatories
(44.1397°N, 93.9969°W)
Time: 08:34:34
(UTC-06:00)
Language:

Cosmos 1500 Rocket - Orbit

View from above orbital plane
View from above orbital plane
View from above satellite
View from above satellite

Ground track
Ground track

The orbit data is extracted from the following two-line orbital elements,

1 14373U 83099B   16344.23700347  .00000118  00000-0  11333-4 0  9996
2 14373  82.5423  62.0658 0021431 130.8465 253.5527 14.83650473792715
Epoch (UTC): 09 December 2016 05:41:17
Eccentricity: 0.0021431
inclination: 82.5423°
perigee height: 603 km
apogee height: 633 km
right ascension of ascending node: 62.0658°
argument of perigee: 130.8465°
revolutions per day: 14.83650473
mean anomaly at epoch: 253.5527°
orbit number at epoch: 79271

The dashed part of the orbit path shows where the satellite is in the earth's shadow,  

DLR